Radiation Dose at Monitoring Post of Fukushima Daini Nuclear Power Station
Date,Time,MP-1(microSv/h),MP-2(microSv/h),MP-3(microSv/h),MP-4(microSv/h),MP-5(microSv/h),MP-6(microSv/h),MP-7(microSv/h),Wind Direction,Wind Velocity(m/s),Rain
2019/08/28,00:00,0.191,0.168,0.294,0.273,0.265,0.147,0.090,south-southwest,5.6,Yes
2019/08/28,00:10,0.190,0.171,0.290,0.273,0.267,0.145,0.090,south-southwest,6.0,Yes
2019/08/28,00:20,0.190,0.170,0.294,0.272,0.269,0.144,0.090,south-southwest,5.9,Yes
2019/08/28,00:30,0.193,0.168,0.294,0.274,0.267,0.146,0.090,south-southwest,5.9,Yes
2019/08/28,00:40,0.191,0.170,0.291,0.276,0.267,0.145,0.091,south-southwest,5.9,Yes
2019/08/28,00:50,0.189,0.170,0.295,0.272,0.270,0.145,0.091,south-southwest,5.4,Yes
2019/08/28,01:00,0.191,0.169,0.293,0.274,0.266,0.147,0.091,south,5.3,Yes
2019/08/28,01:10,0.192,0.169,0.292,0.275,0.267,0.146,0.091,south,5.4,Yes
2019/08/28,01:20,0.190,0.169,0.294,0.271,0.269,0.145,0.093,south,5.3,Yes
2019/08/28,01:30,0.193,0.170,0.292,0.272,0.266,0.145,0.091,south,4.6,Yes
2019/08/28,01:40,0.190,0.171,0.291,0.273,0.268,0.146,0.092,south,4.4,Yes
2019/08/28,01:50,0.189,0.170,0.294,0.272,0.268,0.145,0.092,south,4.2,Yes
2019/08/28,02:00,0.192,0.171,0.291,0.274,0.268,0.147,0.092,south,4.4,Yes
2019/08/28,02:10,0.192,0.171,0.291,0.273,0.267,0.147,0.093,south,4.2,Yes
2019/08/28,02:20,0.191,0.171,0.294,0.270,0.269,0.146,0.093,northeast,5.5,Yes
2019/08/28,02:30,0.193,0.172,0.292,0.273,0.267,0.146,0.093,south-southeast,1.7,Yes
2019/08/28,02:40,0.191,0.171,0.289,0.272,0.268,0.147,0.093,north-northwest,1.0,Yes
2019/08/28,02:50,0.190,0.170,0.292,0.269,0.270,0.147,0.095,south,7.7,Yes
2019/08/28,03:00,0.192,0.172,0.290,0.272,0.267,0.147,0.095,south,4.9,Yes
2019/08/28,03:10,0.193,0.172,0.288,0.272,0.268,0.147,0.095,south,4.8,Yes
2019/08/28,03:20,0.190,0.171,0.291,0.270,0.270,0.147,0.094,south,4.9,No
2019/08/28,03:30,0.192,0.171,0.287,0.270,0.268,0.146,0.092,south,6.0,No
2019/08/28,03:40,0.189,0.169,0.287,0.270,0.267,0.146,0.093,south,6.2,Yes
2019/08/28,03:50,0.189,0.168,0.289,0.268,0.268,0.144,0.091,south,6.3,Yes
2019/08/28,04:00,0.191,0.169,0.286,0.271,0.265,0.144,0.091,south,7.4,Yes
2019/08/28,04:10,0.188,0.168,0.288,0.268,0.266,0.145,0.091,south-southwest,7.0,Yes
2019/08/28,04:20,0.189,0.169,0.287,0.268,0.267,0.144,0.091,south-southwest,6.6,Yes
2019/08/28,04:30,0.190,0.168,0.285,0.269,0.264,0.145,0.092,south,3.2,Yes
2019/08/28,04:40,0.188,0.169,0.288,0.266,0.268,0.145,0.092,south,5.0,Yes
2019/08/28,04:50,0.190,0.169,0.285,0.270,0.268,0.144,0.092,south,5.6,Yes
2019/08/28,05:00,0.191,0.169,0.287,0.269,0.265,0.145,0.092,south-southeast,5.1,Yes
2019/08/28,05:10,0.189,0.170,0.286,0.269,0.267,0.145,0.092,south-southeast,4.8,Yes
2019/08/28,05:20,0.190,0.169,0.285,0.268,0.264,0.144,0.092,south,6.6,Yes
2019/08/28,05:30,0.188,0.168,0.287,0.267,0.268,0.145,0.091,south,6.5,Yes
2019/08/28,05:40,0.188,0.168,0.284,0.268,0.267,0.144,0.091,south-southwest,6.7,Yes
2019/08/28,05:50,0.189,0.168,0.287,0.266,0.264,0.144,0.091,south-southwest,5.9,Yes
2019/08/28,06:00,0.187,0.168,0.283,0.269,0.267,0.145,0.091,south-southwest,6.2,Yes
2019/08/28,06:10,0.189,0.167,0.285,0.267,0.265,0.143,0.091,south-southwest,5.1,Yes
2019/08/28,06:20,0.187,0.167,0.285,0.266,0.266,0.144,0.091,south-southwest,4.9,Yes
2019/08/28,06:30,0.186,0.167,0.283,0.268,0.266,0.144,0.091,south-southwest,5.1,No
2019/08/28,06:40,0.188,0.167,0.286,0.265,0.263,0.143,0.091,south-southwest,5.1,Yes
2019/08/28,06:50,0.186,0.167,0.283,0.268,0.266,0.145,0.090,south,3.5,Yes
2019/08/28,07:00,0.189,0.167,0.285,0.265,0.265,0.144,0.092,south,3.1,Yes
2019/08/28,07:10,0.189,0.169,0.285,0.266,0.267,0.146,0.092,south-southeast,1.7,Yes
2019/08/28,07:20,0.187,0.168,0.282,0.267,0.268,0.145,0.092,south,3.5,No
2019/08/28,07:30,0.188,0.169,0.287,0.266,0.263,0.144,0.091,south-southeast,2.5,No
2019/08/28,07:40,0.186,0.168,0.283,0.267,0.268,0.143,0.090,south-southeast,3.2,Yes
2019/08/28,07:50,0.188,0.167,0.284,0.265,0.265,0.144,0.091,south,1.9,Yes
2019/08/28,08:00,0.187,0.167,0.284,0.266,0.262,0.142,0.090,south,1.2,No
2019/08/28,08:10,0.186,0.166,0.281,0.267,0.266,0.142,0.089,southwest,1.2,No
2019/08/28,08:20,0.187,0.165,0.284,0.263,0.265,0.142,0.089,-,CALM,No
2019/08/28,08:30,0.185,0.166,0.281,0.265,0.260,0.140,0.088,-,CALM,No
2019/08/28,08:40,0.183,0.163,0.279,0.265,0.265,0.141,0.087,-,CALM,No
2019/08/28,08:50,0.186,0.165,0.282,0.261,0.262,0.141,0.088,-,CALM,No
2019/08/28,09:00,0.184,0.165,0.280,0.265,0.260,0.140,0.088,-,CALM,No
2019/08/28,09:10,0.182,0.163,0.280,0.265,0.263,0.139,0.086,-,CALM,No
2019/08/28,09:20,0.184,0.163,0.282,0.261,0.265,0.141,0.087,-,CALM,No
2019/08/28,09:30,0.184,0.165,0.281,0.264,0.261,0.140,0.087,east-southeast,0.6,No
2019/08/28,09:40,0.184,0.164,0.279,0.265,0.260,0.140,0.087,-,CALM,No
2019/08/28,09:50,0.182,0.163,0.281,0.262,0.262,0.140,0.087,-,CALM,No
2019/08/28,10:00,0.186,0.163,0.280,0.261,0.264,0.140,0.087,-,CALM,No
2019/08/28,10:10,0.185,0.163,0.278,0.265,0.262,0.140,0.087,south-southeast,0.7,No
2019/08/28,10:20,0.183,0.163,0.282,0.263,0.261,0.139,0.086,south,0.8,No
2019/08/28,10:30,0.183,0.163,0.281,0.262,0.259,0.140,0.086,-,CALM,No
2019/08/28,10:40,0.184,0.163,0.280,0.262,0.260,0.141,0.086,south-southeast,1.1,No
2019/08/28,10:50,0.184,0.163,0.278,0.264,0.265,0.141,0.086,southeast,1.0,No
2019/08/28,11:00,0.183,0.165,0.281,0.264,0.263,0.141,0.087,southeast,1.7,No
2019/08/28,11:10,0.183,0.164,0.282,0.263,0.263,0.140,0.087,southeast,2.5,No
2019/08/28,11:20,0.182,0.164,0.281,0.261,0.262,0.140,0.087,southeast,2.4,No
2019/08/28,11:30,0.183,0.164,0.279,0.261,0.263,0.140,0.086,southeast,2.0,No
2019/08/28,11:40,0.186,0.162,0.279,0.264,0.261,0.140,0.087,southeast,1.9,No
2019/08/28,11:50,0.184,0.164,0.281,0.266,0.262,0.141,0.086,south-southeast,1.6,No
2019/08/28,12:00,0.183,0.164,0.283,0.265,0.264,0.141,0.087,south-southeast,2.1,No
2019/08/28,12:10,0.183,0.164,0.280,0.262,0.265,0.141,0.087,south-southeast,1.9,No
2019/08/28,12:20,0.187,0.163,0.279,0.264,0.266,0.140,0.088,south-southeast,2.0,Yes
2019/08/28,12:30,0.187,0.163,0.284,0.266,0.263,0.140,0.087,east,1.2,Yes
2019/08/28,12:40,0.186,0.166,0.285,0.266,0.262,0.142,0.087,northeast,1.5,Yes
2019/08/28,12:50,0.184,0.166,0.281,0.264,0.263,0.142,0.087,-,CALM,No
2019/08/28,13:00,0.183,0.165,0.280,0.262,0.262,0.141,0.088,east,1.0,No
2019/08/28,13:10,0.186,0.164,0.283,0.264,0.262,0.141,0.088,-,CALM,No
2019/08/28,13:20,0.186,0.165,0.285,0.266,0.267,0.141,0.087,east-northeast,0.8,No
2019/08/28,13:30,0.185,0.166,0.283,0.265,0.266,0.142,0.086,north-northwest,0.7,No
2019/08/28,13:40,0.184,0.165,0.280,0.263,0.265,0.141,0.086,east-northeast,0.8,No
2019/08/28,13:50,0.186,0.163,0.282,0.263,0.262,0.141,0.087,-,CALM,No
2019/08/28,14:00,0.186,0.164,0.283,0.267,0.262,0.141,0.089,north,0.9,No
2019/08/28,14:10,0.185,0.165,0.282,0.265,0.266,0.141,0.087,north,1.8,No
2019/08/28,14:20,0.183,0.164,0.280,0.263,0.266,0.141,0.086,north-northwest,2.3,Yes
2019/08/28,14:30,0.186,0.165,0.284,0.265,0.265,0.142,0.088,north-northwest,2.2,Yes
2019/08/28,14:40,0.188,0.166,0.285,0.268,0.262,0.143,0.089,north-northwest,2.1,Yes
2019/08/28,14:50,0.186,0.168,0.281,0.267,0.267,0.144,0.090,north,1.9,Yes
2019/08/28,15:00,0.188,0.169,0.287,0.267,0.269,0.145,0.090,north-northwest,1.8,Yes
2019/08/28,15:10,0.191,0.169,0.286,0.271,0.267,0.145,0.092,north,2.3,Yes
2019/08/28,15:20,0.188,0.171,0.285,0.269,0.266,0.145,0.092,north-northwest,1.8,Yes
2019/08/28,15:30,0.188,0.168,0.287,0.265,0.270,0.145,0.090,north-northwest,1.7,Yes
2019/08/28,15:40,0.190,0.168,0.286,0.268,0.267,0.145,0.091,north-northwest,1.8,Yes
2019/08/28,15:50,0.190,0.169,0.285,0.268,0.265,0.144,0.091,north-northeast,1.2,Yes
2019/08/28,16:00,0.188,0.169,0.285,0.266,0.270,0.145,0.092,north,1.0,Yes
2019/08/28,16:10,0.191,0.169,0.287,0.267,0.269,0.147,0.091,north,0.8,Yes
2019/08/28,16:20,0.189,0.170,0.283,0.269,0.265,0.145,0.093,north,1.2,Yes
2019/08/28,16:30,0.188,0.169,0.285,0.266,0.267,0.145,0.091,-,CALM,No
2019/08/28,16:40,0.190,0.168,0.286,0.265,0.269,0.145,0.090,east-southeast,0.6,No
2019/08/28,16:50,0.188,0.168,0.282,0.269,0.264,0.144,0.090,southeast,1.0,No
2019/08/28,17:00,0.186,0.166,0.284,0.265,0.263,0.143,0.090,southeast,1.3,No
2019/08/28,17:10,0.188,0.167,0.284,0.263,0.265,0.143,0.088,south-southeast,1.2,No
2019/08/28,17:20,0.186,0.167,0.280,0.265,0.265,0.143,0.089,-,CALM,No
2019/08/28,17:30,0.184,0.165,0.282,0.266,0.262,0.141,0.088,southeast,1.0,No
2019/08/28,17:40,0.185,0.164,0.282,0.262,0.265,0.141,0.088,southeast,1.1,No
2019/08/28,17:50,0.187,0.165,0.280,0.264,0.266,0.142,0.088,southeast,1.3,No
2019/08/28,18:00,0.185,0.164,0.282,0.265,0.263,0.142,0.088,south-southeast,2.1,No
2019/08/28,18:10,0.185,0.164,0.283,0.263,0.262,0.141,0.088,south,3.1,No
2019/08/28,18:20,0.186,0.165,0.281,0.263,0.264,0.142,0.087,south-southeast,2.4,No
2019/08/28,18:30,0.185,0.164,0.280,0.265,0.263,0.141,0.088,south-southeast,2.5,No
2019/08/28,18:40,0.184,0.164,0.284,0.262,0.263,0.141,0.087,south,3.6,No
2019/08/28,18:50,0.187,0.165,0.280,0.264,0.266,0.140,0.087,south,3.5,No
2019/08/28,19:00,0.185,0.164,0.280,0.266,0.264,0.142,0.088,south,3.4,No
2019/08/28,19:10,0.183,0.164,0.283,0.262,0.260,0.141,0.088,south,3.5,No
2019/08/28,19:20,0.186,0.165,0.282,0.263,0.265,0.140,0.086,south,3.3,No
2019/08/28,19:30,0.184,0.163,0.280,0.266,0.264,0.141,0.088,south,4.3,No
2019/08/28,19:40,0.183,0.164,0.283,0.263,0.261,0.141,0.087,south-southwest,4.5,Yes
2019/08/28,19:50,0.185,0.163,0.280,0.264,0.265,0.141,0.086,south-southwest,3.7,No
2019/08/28,20:00,0.185,0.164,0.280,0.266,0.265,0.141,0.087,south-southwest,4.1,No
2019/08/28,20:10,0.184,0.164,0.284,0.263,0.261,0.141,0.088,south-southwest,4.2,No
2019/08/28,20:20,0.186,0.165,0.281,0.264,0.263,0.141,0.087,south-southwest,3.5,No
2019/08/28,20:30,0.186,0.163,0.281,0.268,0.265,0.141,0.088,southwest,3.0,No
2019/08/28,20:40,0.185,0.164,0.284,0.264,0.262,0.142,0.088,southwest,4.8,No
2019/08/28,20:50,0.187,0.165,0.281,0.263,0.264,0.141,0.087,southwest,4.8,No
2019/08/28,21:00,0.185,0.163,0.282,0.266,0.265,0.141,0.088,south-southwest,3.9,No
2019/08/28,21:10,0.185,0.165,0.284,0.264,0.263,0.141,0.088,south-southwest,2.9,No
2019/08/28,21:20,0.186,0.165,0.280,0.263,0.262,0.141,0.087,southwest,3.4,No
2019/08/28,21:30,0.185,0.164,0.282,0.265,0.266,0.142,0.087,southwest,3.3,No
2019/08/28,21:40,0.185,0.165,0.284,0.264,0.262,0.141,0.088,southwest,3.9,No
2019/08/28,21:50,0.186,0.166,0.281,0.263,0.261,0.142,0.088,west-southwest,3.2,No
2019/08/28,22:00,0.187,0.164,0.281,0.266,0.266,0.142,0.088,southwest,2.7,No
2019/08/28,22:10,0.185,0.166,0.285,0.264,0.265,0.143,0.088,southwest,3.1,No
2019/08/28,22:20,0.185,0.164,0.281,0.263,0.263,0.142,0.088,south-southwest,3.6,No
2019/08/28,22:30,0.188,0.164,0.281,0.267,0.265,0.141,0.088,southwest,4.4,No
2019/08/28,22:40,0.185,0.166,0.284,0.265,0.265,0.142,0.088,south-southwest,4.3,No
2019/08/28,22:50,0.185,0.164,0.281,0.263,0.263,0.142,0.088,south-southwest,4.8,No
2019/08/28,23:00,0.187,0.164,0.282,0.267,0.265,0.141,0.088,southwest,4.9,No
2019/08/28,23:10,0.184,0.165,0.282,0.266,0.264,0.142,0.088,southwest,3.4,No
2019/08/28,23:20,0.183,0.164,0.281,0.263,0.261,0.141,0.087,southwest,3.8,No
2019/08/28,23:30,0.187,0.165,0.281,0.267,0.264,0.142,0.088,southwest,4.1,No
2019/08/28,23:40,0.185,0.165,0.284,0.265,0.265,0.143,0.088,southwest,4.0,No
2019/08/28,23:50,0.184,0.164,0.282,0.263,0.262,0.141,0.088,southwest,2.8,No
